Location: Eimen
(51.8766°N, 9.7806°E)
Time: 07:30:14
(UTC+00:00)

Cosmos 2221 Rocket - Pass Details

Date: 14 August 2024
Orbit: 618 x 644 km, 82.5° (Epoch: 09 September)

Event Time Altitude Azimuth Distance (km) Brightness Sun altitude
Rises 02:36:00 0° 349° (N) 2,971 7.5 -12.1°
Reaches altitude 10° 02:38:16 10° 351° (N) 2,056 6.7 -11.9°
Maximum altitude 02:42:51 82° 80° (E) 658 3.7 -11.3°
Drops below altitude 10° 02:47:23 10° 168° (SSE) 2,033 5.9 -10.8°
Sets 02:49:37 0° 169° (S) 2,935 6.7 -10.6°
